Weather observations for the past three days for
Kalispell, Glacier Park International Airport
Imperial (Metric)
Date Time (mdt) Wind (mph) Vis. (mi.) Weather Sky Cond. Temperature (ºF) Relative Humidity Wind Chill (°F) Heat Index (°F) Pressure Precipitation (in)
Air Dwpt 6 hour altimeter (in) sea level (mb) 1 hr 3 hr 6 hr
Max. Min.
24 09:55 N 3 10.00 Fair CLR 71.1 43 36% 30.06 1015.8
24 08:55 N 3 10.00 Fair CLR 66.9 45 45% 30.06 1015.6
24 07:55 Calm 10.00 Fair CLR 57 46 67% 30.06 1015.7
24 06:55 Calm 10.00 Fair CLR 50 43 77% 30.06 1015.9
24 05:55 NW 3 10.00 Fair CLR 46.9 41 62.1 46.9 80% 30.06 1016.0
24 04:55 W 5 10.00 Fair CLR 48 39.9 74% 47 30.05 1015.5
24 03:55 Calm 10.00 Fair CLR 50 43 77% 30.04 1015.4
24 02:55 Calm 10.00 Fair CLR 51.1 41 69% 30.04 1015.4
24 01:55 W 3 10.00 Fair CLR 54 43 67% 30.04 1015.1
24 00:55 Calm 10.00 Fair CLR 57 43 60% 30.02 1014.6
23 23:55 Calm 10.00 Fair CLR 62.1 43 95 59 50% 30.01 1014.1
23 22:55 Calm 10.00 Fair CLR 66 41 40% 30 1013.6
23 21:55 Calm 10.00 Fair CLR 75 33.1 22% 76 29.98 1013.0
23 20:55 W 6 10.00 Fair CLR 84 32 15% 81 29.97 1012.4
23 19:55 W 10 10.00 Fair CLR 90 36 15% 86 29.97 1012.3
23 18:55 W 12 G 20 10.00 Fair CLR 93 36 13% 89 29.97 1012.5
23 17:55 W 12 G 20 10.00 Fair CLR 95 37.9 96.1 86 14% 90 29.97 1012.3
23 16:55 Calm 7.00 Smoke CLR 95 48 20% 91 29.97 1012.5
23 15:55 SE 6 9.00 Smoke CLR 93 50 23% 90 29.98 1012.9
23 14:55 S 8 7.00 Smoke CLR 91.9 53.1 27% 89 29.99 1013.0
23 13:55 SE 13 6.00 Smoke CLR 90 54 29% 88 30 1013.3
23 12:55 SE 13 5.00 Smoke CLR 88 52 29% 86 30 1013.6
23 11:55 SW 6 5.00 Smoke CLR 86 51.1 86 57 30% 84 30.01 1013.8
23 10:55 SE 7 5.00 Smoke CLR 82.9 55.9 40% 82 30.02 1014.2
23 09:55 Calm 5.00 Smoke CLR 77 55.9 48% 79 30.03 1014.5
23 08:55 Calm 5.00 Smoke CLR 72 55.9 57% 30.02 1014.1
23 07:55 Calm 6.00 Fair with Haze CLR 66 55.9 70% 30.01 1013.8
23 06:55 Calm 5.00 Fog/Mist CLR 59 55 87% 30 1013.3
23 05:55 W 5 6.00 Fog/Mist CLR 57 53.1 66.9 55.9 87% 29.98 1012.8
23 04:55 Calm 7.00 Fair CLR 57.9 53.1 84% 29.96 1012.2
23 03:55 Calm 7.00 Fair CLR 60.1 54 80% 29.94 1011.3
23 02:55 N 3 7.00 Fair CLR 63 54 73% 29.94 1011.1
23 01:55 W 6 7.00 Fair CLR 63 55.9 78% 29.93 1010.8
23 00:55 NW 3 6.00 Fair with Haze CLR 64 57 78% 29.92 1010.8
22 23:55 Calm 6.00 Fair with Haze CLR 64.9 57 96.1 64.9 76% 29.92 1010.6
22 22:55 Calm 7.00 Fair CLR 69.1 57.9 68% 29.91 1010.5
22 21:55 Calm 7.00 Fair CLR 75 53.1 46% 78 29.9 1010.1
22 20:55 Calm 6.00 Fair with Haze CLR 84 61 46% 84 29.89 1009.5
22 19:55 S 7 6.00 Fair with Haze CLR 90 59 35% 89 29.9 1009.6
22 18:55 SE 5 7.00 Fair CLR 95 48 20% 91 29.91 1010.1
22 16:55 SE 5 6.00 Fair with Haze CLR 93.9 51.1 23% 91 29.93 1011.2
22 15:55 S 6 6.00 Fair with Haze CLR 93.9 48.9 21% 91 29.95 1011.8
22 14:55 SE 5 6.00 Fair with Haze CLR 95 48 20% 91 29.96 1012.0
22 13:55 Vrbl 3 7.00 Fair CLR 93 50 23% 90 29.98 1012.4
22 12:55 Vrbl 3 7.00 Fair CLR 90 52 27% 87 29.99 1013.1
22 11:55 Vrbl 5 7.00 Fair CLR 87.1 53.1 87.1 57 31% 85 30.01 1013.7
22 10:55 Calm 7.00 Fair CLR 82.9 55 38% 82 30.03 1014.4
22 09:55 NE 9 8.00 Fair CLR 79 53.1 41% 79 30.04 1014.6
22 08:55 NE 16 8.00 Fair CLR 75.9 53.1 45% 78 30.05 1014.8
22 07:55 NW 3 8.00 Fair CLR 71.1 55.9 59% 30.05 1014.8
22 06:55 W 3 8.00 Fair CLR 60.1 52 75% 30.06 1015.2
22 05:55 Calm 9.00 Fair CLR 57 51.1 71.1 57 81% 30.06 1015.4
22 04:55 W 3 10.00 Fair CLR 59 51.1 75% 30.05 1014.9
22 03:55 Calm 10.00 Fair CLR 60.1 51.1 72% 30.05 1015.1
22 02:55 Calm 10.00 Fair CLR 62.1 52 70% 30.06 1015.2
22 01:55 Calm 10.00 Fair CLR 66 53.1 63% 30.06 1015.2
22 00:55 W 3 10.00 Fair CLR 64.9 52 63% 30.05 1015.1
21 23:55 Calm 10.00 Fair CLR 71.1 51.1 98.1 70 49% 30.05 1014.9
21 22:55 W 3 10.00 Fair CLR 75 50 42% 78 30.05 1014.8
21 21:55 N 7 10.00 Fair CLR 81 45 28% 80 30.04 1014.4
21 20:55 N 7 10.00 Fair CLR 84.9 50 30% 83 30.03 1014.2
21 19:55 E 7 10.00 Fair CLR 93.9 48 21% 90 30.03 1013.8
21 18:55 N 7 10.00 Fair CLR 97 48.9 20% 94 30.04 1014.4
21 17:55 Calm 10.00 Fair CLR 97 46.9 100 90 18% 93 30.05 1015.2
21 16:55 Calm 10.00 Fair CLR 98.1 48.9 19% 95 30.07 1015.6
21 15:55 NE 7 10.00 Fair CLR 98.1 48 18% 95 30.09 1016.2
21 14:55 Vrbl 3 10.00 Fair CLR 95 46.9 19% 91 30.11 1016.9
21 13:55 S 6 10.00 Fair CLR 93.9 48.9 21% 91 30.12 1017.5
21 12:55 Vrbl 3 10.00 Fair CLR 93 51.1 24% 90 30.14 1018.0
21 11:55 NE 10 10.00 Fair CLR 89.1 55.9 90 55.9 33% 87 30.16 1018.7
21 10:55 NE 9 10.00 Fair CLR 84.9 55 36% 84 30.18 1019.3
Date Time (mdt) Wind (mph) Vis. (mi.) Weather Sky Cond. Air Dwpt Max. Min. Relative Humidity Wind Chill (°F) Heat Index (°F) altimeter (in) sea level (mb) 1 hr 3 hr 6 hr
6 hour
Temperature (ºF) Pressure Precipitation (in)